2017-008AM

Last updated on Tue Feb 28 2017 00:15:03 GMT+0000 (Greenwich Mean Time)

1 41983U 17008AM 17058.89635326 .00005706 00000-0 25494-3 0 9999 2 41983 97.5129 120.5147 0007974 212.2669 147.8040 15.21716322 1752
UTC large
Height (km)
Speed (km/s)
/
Latitude / Longitude
Inclination (degrees)
Orbital Period (minutes)
Azimuth
Elevation
Range (km)
Doppler Factor

Next 0 passes for location: London (51.5072 / 0.1276)

Sorry there are no passes over London.